| time (UTC) | temp C | wind direction | speed KPH | gust KPH | rain 1hr cm | rain 24hr cm | rain mn cm | humidity % | barometer mb |
| 20260906094604 | 17 | 0 | 0.0 | 1.6 | 0.00 | 0.00 | 0.00 | 48 | 1023.5 |
| 20260906093108 | 18 | 0 | 0.0 | 1.6 | 0.00 | 0.00 | 0.00 | 47 | 1023.7 |
| 20260906091612 | 18 | 193 | 3.2 | 6.4 | 0.00 | 0.00 | 0.00 | 48 | 1023.7 |
| 20260906090116 | 17 | 0 | 0.0 | 1.6 | 0.00 | 0.00 | 0.00 | 50 | 1023.7 |
| 20260906084611 | 17 | 0 | 0.0 | 1.6 | 0.00 | 0.00 | 0.00 | 49 | 1023.5 |
| 20260906083106 | 18 | 0 | 0.0 | 1.6 | 0.00 | 0.00 | 0.00 | 47 | 1023.4 |
| 20260906081607 | 18 | 0 | 0.0 | 4.8 | 0.00 | 0.00 | 0.00 | 48 | 1023.5 |
| 20260906080104 | 18 | 0 | 0.0 | 3.2 | 0.00 | 0.00 | 0.00 | 48 | 1023.6 |
| 20260906074611 | 18 | 0 | 0.0 | 1.6 | 0.00 | 0.00 | 0.00 | 48 | 1023.7 |
| 20260906073110 | 18 | 0 | 0.0 | 3.2 | 0.00 | 0.00 | 0.00 | 47 | 1023.8 |
| 20260906071609 | 19 | 0 | 0.0 | 4.8 | 0.00 | 0.00 | 0.00 | 45 | 1023.9 |
| 20260906070135 | 20 | 0 | 0.0 | 6.4 | 0.00 | 0.00 | 0.00 | 43 | 1023.8 |
| 20260906064602 | 20 | 0 | 0.0 | 4.8 | 0.00 | 0.00 | 0.00 | 42 | 1023.8 |
| 20260906063108 | 20 | 207 | 0.0 | 4.8 | 0.00 | 0.00 | 0.00 | 41 | 1023.7 |
| 20260906061635 | 21 | 188 | 1.6 | 14.5 | 0.00 | 0.00 | 0.00 | 41 | 1023.9 |
| 20260906060109 | 21 | 214 | 3.2 | 9.7 | 0.00 | 0.00 | 0.00 | 39 | 1023.8 |
| 20260906054602 | 21 | 0 | 0.0 | 4.8 | 0.00 | 0.00 | 0.00 | 38 | 1024.3 |
| 20260906053101 | 22 | 63 | 3.2 | 6.4 | 0.00 | 0.00 | 0.00 | 37 | 1024.6 |
| 20260906051606 | 22 | 0 | 3.2 | 17.7 | 0.00 | 0.00 | 0.00 | 37 | 1024.6 |
| 20260906050116 | 22 | 207 | 8.0 | 16.1 | 0.00 | 0.00 | 0.00 | 35 | 1023.9 |
| 20260906044603 | 22 | 212 | 4.8 | 16.1 | 0.00 | 0.00 | 0.00 | 35 | 1023.8 |
| 20260906043112 | 22 | 222 | 4.8 | 19.3 | 0.00 | 0.00 | 0.00 | 36 | 1023.7 |
| 20260906041608 | 22 | 239 | 4.8 | 17.7 | 0.00 | 0.00 | 0.00 | 36 | 1023.6 |
| 20260906040119 | 22 | 264 | 6.4 | 32.2 | 0.00 | 0.00 | 0.00 | 36 | 1023.6 |
| 20260906034602 | 22 | 211 | 12.9 | 25.7 | 0.00 | 0.00 | 0.00 | 33 | 1023.6 |
| 20260906033108 | 22 | 215 | 1.6 | 8.0 | 0.00 | 0.00 | 0.00 | 32 | 1023.4 |
| 20260906031618 | 22 | 221 | 1.6 | 9.7 | 0.00 | 0.00 | 0.00 | 32 | 1023.4 |
| 20260906030113 | 22 | 224 | 1.6 | 17.7 | 0.00 | 0.00 | 0.00 | 33 | 1023.1 |
| 20260906024607 | 22 | 251 | 9.7 | 19.3 | 0.00 | 0.00 | 0.00 | 34 | 1023.0 |
| 20260906023132 | 22 | 239 | 4.8 | 17.7 | 0.00 | 0.00 | 0.00 | 34 | 1022.9 |
| 20260906021608 | 22 | 217 | 4.8 | 17.7 | 0.00 | 0.00 | 0.00 | 35 | 1022.9 |
| 20260906020107 | 23 | 234 | 1.6 | 6.4 | 0.00 | 0.00 | 0.00 | 32 | 1022.8 |
| 20260906014629 | 23 | 205 | 8.0 | 17.7 | 0.00 | 0.00 | 0.00 | 31 | 1023.3 |
| 20260906013103 | 23 | 245 | 6.4 | 17.7 | 0.00 | 0.00 | 0.00 | 33 | 1023.0 |
| 20260906011608 | 23 | 199 | 6.4 | 14.5 | 0.00 | 0.00 | 0.00 | 32 | 1022.8 |
| 20260906010111 | 23 | 192 | 6.4 | 14.5 | 0.00 | 0.00 | 0.00 | 32 | 1022.8 |
| 20260906004614 | 23 | 214 | 4.8 | 9.7 | 0.00 | 0.00 | 0.00 | 32 | 1023.1 |
| 20260906003109 | 24 | 0 | 0.0 | 8.0 | 0.00 | 0.00 | 0.00 | 31 | 1023.1 |
| 20260906001602 | 24 | 195 | 3.2 | 11.3 | 0.00 | 0.00 | 0.00 | 31 | 1023.0 |
| 20260906000111 | 25 | 211 | 3.2 | 12.9 | 0.00 | 0.00 | 0.00 | 30 | 1023.0 |
| 20260905234605 | 26 | 233 | 3.2 | 16.1 | 0.00 | 0.00 | 0.00 | 28 | 1022.8 |
| 20260905233106 | 25 | 73 | 3.2 | 9.7 | 0.00 | 0.00 | 0.00 | 26 | 1022.9 |
| 20260905231607 | 26 | 204 | 0.0 | 8.0 | 0.00 | 0.00 | 0.00 | 26 | 1022.7 |
| 20260905230110 | 26 | 160 | 3.2 | 9.7 | 0.00 | 0.00 | 0.00 | 24 | 1022.4 |
| 20260905224610 | 26 | 335 | 0.0 | 4.8 | 0.00 | 0.00 | 0.00 | 23 | 1022.5 |
| 20260905223107 | 26 | 280 | 0.0 | 6.4 | 0.00 | 0.00 | 0.00 | 23 | 1022.5 |
| 20260905221608 | 27 | 48 | 1.6 | 8.0 | 0.00 | 0.00 | 0.00 | 23 | 1022.5 |
| 20260905220123 | 27 | 1 | 1.6 | 6.4 | 0.00 | 0.00 | 0.00 | 22 | 1022.4 |
| 20260905214606 | 27 | 330 | 4.8 | 14.5 | 0.00 | 0.00 | 0.00 | 22 | 1022.6 |
| 20260905213108 | 28 | 17 | 4.8 | 14.5 | 0.00 | 0.00 | 0.00 | 22 | 1022.8 |
| 20260905211609 | 28 | 44 | 0.0 | 11.3 | 0.00 | 0.00 | 0.00 | 21 | 1022.8 |
| 20260905210107 | 28 | 25 | 3.2 | 19.3 | 0.00 | 0.00 | 0.00 | 22 | 1023.0 |
| 20260905204606 | 27 | 82 | 6.4 | 19.3 | 0.00 | 0.00 | 0.00 | 22 | 1023.1 |
| 20260905203105 | 27 | 155 | 4.8 | 12.9 | 0.00 | 0.00 | 0.00 | 23 | 1023.4 |
| 20260905201607 | 26 | 53 | 6.4 | 14.5 | 0.00 | 0.00 | 0.00 | 23 | 1023.6 |
| 20260905200101 | 27 | 288 | 6.4 | 19.3 | 0.00 | 0.00 | 0.00 | 22 | 1023.6 |
| 20260905194607 | 27 | 21 | 4.8 | 20.9 | 0.00 | 0.00 | 0.00 | 22 | 1023.7 |
| 20260905193104 | 26 | 28 | 3.2 | 20.9 | 0.00 | 0.00 | 0.00 | 24 | 1023.8 |
| 20260905191605 | 27 | 4 | 6.4 | 20.9 | 0.00 | 0.00 | 0.00 | 24 | 1023.8 |
| 20260905190114 | 26 | 70 | 9.7 | 17.7 | 0.00 | 0.00 | 0.00 | 25 | 1023.9 |
| 20260905184607 | 27 | 50 | 6.4 | 17.7 | 0.00 | 0.00 | 0.00 | 24 | 1023.9 |
| 20260905183126 | 27 | 4 | 8.0 | 22.5 | 0.00 | 0.00 | 0.00 | 26 | 1023.8 |
| 20260905181606 | 27 | 6 | 8.0 | 20.9 | 0.00 | 0.00 | 0.00 | 26 | 1024.0 |
| 20260905180103 | 27 | 68 | 6.4 | 12.9 | 0.00 | 0.00 | 0.00 | 26 | 1024.2 |
| 20260905174607 | 27 | 51 | 8.0 | 17.7 | 0.00 | 0.00 | 0.00 | 27 | 1024.1 |
| 20260905173105 | 26 | 49 | 8.0 | 19.3 | 0.00 | 0.00 | 0.00 | 28 | 1024.2 |
| 20260905171605 | 26 | 1 | 4.8 | 17.7 | 0.00 | 0.00 | 0.00 | 29 | 1024.2 |
| 20260905170104 | 27 | 13 | 3.2 | 16.1 | 0.00 | 0.00 | 0.00 | 25 | 1023.7 |
| 20260905164608 | 27 | 30 | 6.4 | 16.1 | 0.00 | 0.00 | 0.00 | 24 | 1023.6 |
| 20260905163105 | 27 | 20 | 3.2 | 20.9 | 0.00 | 0.00 | 0.00 | 23 | 1023.6 |
| 20260905161605 | 28 | 36 | 4.8 | 11.3 | 0.00 | 0.00 | 0.00 | 20 | 1023.5 |
| 20260905160123 | 28 | 257 | 4.8 | 16.1 | 0.00 | 0.00 | 0.00 | 20 | 1023.6 |
| 20260905154607 | 28 | 22 | 1.6 | 8.0 | 0.00 | 0.00 | 0.00 | 21 | 1023.6 |
| 20260905153112 | 28 | 316 | 0.0 | 8.0 | 0.00 | 0.00 | 0.00 | 20 | 1023.5 |
| 20260905151610 | 27 | 259 | 1.6 | 6.4 | 0.00 | 0.00 | 0.00 | 22 | 1023.5 |
| 20260905150104 | 27 | 0 | 0.0 | 4.8 | 0.00 | 0.00 | 0.00 | 23 | 1023.5 |
| 20260905144606 | 26 | 191 | 0.0 | 6.4 | 0.00 | 0.00 | 0.00 | 24 | 1023.7 |
| 20260905143111 | 26 | 0 | 0.0 | 3.2 | 0.00 | 0.00 | 0.00 | 24 | 1023.7 |
| 20260905141605 | 25 | 41 | 0.0 | 3.2 | 0.00 | 0.00 | 0.00 | 24 | 1023.7 |
| 20260905140110 | 25 | 268 | 0.0 | 11.3 | 0.00 | 0.00 | 0.00 | 25 | 1023.5 |
| 20260905134607 | 24 | 110 | 1.6 | 8.0 | 0.00 | 0.00 | 0.00 | 26 | 1023.2 |
| 20260905133108 | 23 | 213 | 3.2 | 16.1 | 0.00 | 0.00 | 0.00 | 27 | 1023.1 |
| 20260905131616 | 22 | 243 | 6.4 | 14.5 | 0.00 | 0.00 | 0.00 | 28 | 1023.0 |
| 20260905130123 | 21 | 236 | 0.0 | 4.8 | 0.00 | 0.00 | 0.00 | 29 | 1022.8 |
| 20260905124608 | 20 | 272 | 3.2 | 16.1 | 0.00 | 0.00 | 0.00 | 30 | 1022.7 |
| 20260905123107 | 20 | 208 | 4.8 | 11.3 | 0.00 | 0.00 | 0.00 | 29 | 1022.5 |
| 20260905121604 | 21 | 215 | 1.6 | 9.7 | 0.00 | 0.00 | 0.00 | 29 | 1022.5 |
| 20260905120114 | 20 | 245 | 4.8 | 16.1 | 0.00 | 0.00 | 0.00 | 30 | 1022.5 |
| 20260905114605 | 20 | 221 | 4.8 | 11.3 | 0.00 | 0.00 | 0.00 | 32 | 1022.5 |
| 20260905113105 | 20 | 243 | 0.0 | 4.8 | 0.00 | 0.00 | 0.00 | 34 | 1022.6 |
| 20260905111613 | 20 | 210 | 0.0 | 6.4 | 0.00 | 0.00 | 0.00 | 32 | 1022.6 |
| 20260905110105 | 19 | 0 | 1.6 | 9.7 | 0.00 | 0.00 | 0.00 | 35 | 1022.5 |
| 20260905104607 | 19 | 0 | 0.0 | 12.9 | 0.00 | 0.00 | 0.00 | 34 | 1022.5 |
| 20260905103105 | 20 | 0 | 0.0 | 8.0 | 0.00 | 0.00 | 0.00 | 35 | 1022.4 |
| 20260905101605 | 19 | 0 | 0.0 | 4.8 | 0.00 | 0.00 | 0.00 | 36 | 1022.2 |